Погода в Шалкаре

Казахстан     47°49′57″N   59°37′12″E
темп.,
°C
ветер,
м/с
пор.,
м/с
влажн.,
%
обл.,
%
осадки,
мм/ч
давл.,
гПа
погр.,
м
23 октября, сб
сб2323:00+10юз7155012 0.0 1025411
02:00+9юз7166162 0.0 1025378
05:00+9юз71564100 0.0 1025361
08:00+8юз7146432 0.0 1025335
11:00+12юз8124811 0.0 1026565
14:00+16юз810432 0.0 10261073
17:00+16юз68372 0.0 10251036
20:00+13ююз510340 0.0 1025209
24 октября, вс
вс2423:00+10ююз611515 0.0 1026234
02:00+8ююз510575 0.0 1025211
05:00+8ююз49585 0.0 1025160
08:00+7ююз47605 0.0 1024130
11:00+13ююз69445 0.0 1023468
14:00+16ююз79328 0.0 1022973
17:00+16ююз683221 0.0 1020733
20:00+13ю484498 0.0 1020160
25 октября, пн
пн2523:00+11ю4850100 0.0 1020150
02:00+10ююз3453100 0.0 101879
05:00+9ю3350100 0.0 101727
08:00+9ю3344100 0.0 101627
11:00+13ю3434100 0.0 1016277
14:00+15юз3430100 0.0 1014638
17:00+15зюз2331100 0.0 1013107
20:00+13зсз3441100 0.0 101348
26 октября, вт
вт2623:00+12сз4847100 0.0 1014226
02:00+9ссз61072100 0.0 1015536
05:00+8с6966100 0.0 1017697
08:00+7с696528 0.0 1019714
11:00+8с67565 0.0 1021946
14:00+10с66426 0.0 10221665
17:00+9с664031 0.0 10231611
20:00+8с464961 0.0 1025225
27 октября, ср
ср2723:00+6с475380 0.0 1027246
02:00+5ссв35585 0.0 1028121
05:00+4св33625 0.0 102943
08:00+3св22655 0.0 103026
11:00+6св21490 0.0 1032464
14:00+8ссз12412 0.0 10311092
17:00+8ссз22370 0.0 10311163
20:00+7ю00430 0.0 103110